Regional Weather Roundup
Issued by NWS Northern Indiana

Home | Current Version | Previous Version | Text Only | Print | Product List | Glossary Off
Versions: 1 2 3 4 5 6 7 8 9 10 11 12 13 14 15 16 17 18 19 20 21 22 23 24 25 26 27 28 29 30 31 32 33 34 35 36 37 38 39 40 41 42 43 44 45 46 47 48 49 50

000
ASUS43 KIWX 262200
RWRIWX

KIWX WEATHER ROUNDUP
NATIONAL WEATHER SERVICE NORTHERN INDIANA
600 PM EDT THU MAY 26 2016

NOTE: "FAIR" INDICATES FEW OR NO CLOUDS BELOW 12,000 FEET WITH NO
SIGNIFICANT WEATHER AND/OR OBSTRUCTIONS TO VISIBILITY.

* THESE STATIONS ARE NOT UNDER NWS QUALITY CONTROL. THEY ALSO MAY NOT
  REPORT WEATHER SUCH AS PRECIPITATION OR FOG.

INZ001>027-262300-
NORTHERN INDIANA

CITY           SKY/WX    TMP DP  RH WIND       PRES   REMARKS
GARY*          PTSUNNY   84  68  58 SW12      29.86F
SOUTH BEND     MOSUNNY   80  61  52 S16       29.89S
ELKHART*       MOSUNNY   82  66  57 SW9       29.90S
GOSHEN         PTSUNNY   82  57  42 S13G21    29.90S
ANGOLA*          N/A     82  79  89 S13       29.91R
FORT WAYNE     CLOUDY    81  62  52 S8        29.93R

$$
INZ028>050-262300-
CENTRAL INDIANA

CITY           SKY/WX    TMP DP  RH WIND       PRES   REMARKS
LAFAYETTE      MOSUNNY   78  64  61 SW10      29.90F
KOKOMO*        MOSUNNY   82  63  51 SW14G21   29.92S
MUNCIE*        CLOUDY    80  64  58 S12       29.96R
INDIANAPOLIS   CLOUDY    75  64  68 S10       29.94F

$$
MIZ043>046-050>051-056>058-064>065-071>073-077>080-262300-
SOUTHWEST LOWER MICHIGAN

CITY           SKY/WX    TMP DP  RH WIND       PRES   REMARKS
BATTLE CREEK   MOSUNNY   82  60  47 SW13      29.89F
BENTON HARBOR  SUNNY     78  64  61 W12       29.87F
COLDWATER*     SUNNY     82  56  40 SW13      29.90S
HILLSDALE*     CLOUDY    82  57  41 S8        29.92R
HOLLAND        MOSUNNY   79  68  69 W9        29.88F
GRAND RAPIDS   LGT RAIN  83  65  54 SW9       29.86F
KALAMAZOO      CLOUDY    84  58  40 SW9       29.88F
STURGIS*       PTSUNNY   79  58  48 SW8       29.89S
THREE RIVERS*  FAIR      83  58  42 S10       29.88F

$$
OHZ001>008-015>018-024>025-262300-
NORTHWEST OHIO

CITY           SKY/WX    TMP DP  RH WIND       PRES   REMARKS
DEFIANCE       MOSUNNY   85  61  44 SW9       29.91F
FINDLAY        PTSUNNY   83  64  52 S10       29.93S
TOLEDO EXPRESS MOSUNNY   85  63  47 SW10      29.90F
TOLEDO METCALF PTSUNNY   85  63  47 SW12      29.91F
LIMA           MOSUNNY   80  66  62 S13       29.95S

$$
AND FOR LAKE MICHIGAN COASTAL AND OPEN LAKE BUOY OBSERVATIONS

STATION/POSITION TEMP    WIND        PRES    VSBY  WAVE
                 AIR SEA DIR/SP/G                  HT/PER
                 (F)     (DEG/KT/KT) (MB)    (MI)  (FT/S)
CALUMET HARBOR    83     230/ 10/ 16 1010.5F
MICHIGAN CITY     71     260/  4/  6   N/A
BURNS HARBOR      79     210/ 13/ 15 1011.5F
SAINT JOSEPH      70     180/  2/  5 1012.2S
SOUTH LAKE BUOY   56 50  160/ 10/ 10 1010.9          1/ 3
4 MI NW BRIDGMAN  63 63  320/  4/  4   N/A           1
MICHIGAN CITY     68 61  310/  2/  2   N/A           1

$$
&&



USA.gov is the U.S. government's official web portal to all federal, state and local government web resources and services.